Parsons, KS

11:39 AM CDT on May 25, 2018 (GMT -0500)
Tri-City

Weather History for KPPF - January, 2013

Change the Weather History Date:

Wednesday, January 16, 2013

  Actual Average Record
Temperature  
Mean Temperature 28 °F -  
Max Temperature 46 °F 43 °F 72 °F (1952)
Min Temperature 10 °F 21 °F -9 °F (1997)
Degree Days  
Heating Degree Days 37    
Moisture  
Dew Point 15 °F    
Average Humidity 66    
Maximum Humidity 88    
Minimum Humidity 30    
Precipitation  
Precipitation 0.00 in - - ()
Sea Level Pressure  
Sea Level Pressure 30.19 in    
Wind  
Wind Speed 2 mph (SW)    
Max Wind Speed 12 mph    
Max Gust Speed 20 mph    
Visibility 10 miles    
Events      
Averages and records for this station are not official NWS values.
T = Trace of Precipitation, MM = Missing Value Source: NWS Daily Summary

Daily Weather History Graph

Daily Weather History Graph

Search for Another Location

Airport or City:

Astronomy

Jan. 16, 2013 Rise Set
Actual Time 7:34 AM CST 5:29 PM CST
Civil Twilight 7:06 AM CST 5:57 PM CST
Nautical Twilight 6:34 AM CST 6:29 PM CST
Astronomical Twilight 6:03 AM CST 7:01 PM CST
Moon 10:19 AM CST (1/16) 11:13 PM CST (1/16)
Length of Visible Light 10h 51m
Length of Day
9h 54m
Waxing Crescent, 28% of the Moon is Illuminated
Jan 16
Waxing Crescent
Jan 18
First Quarter
Jan 26
Full
Feb 3
Last Quarter
Feb 10
New

Hourly Weather History & Observations

Time (CST) Temp. Windchill Dew Point Humidity Pressure Visibility Wind Dir Wind Speed Gust Speed Precip Events Conditions
12:52 AM 14.0 °F - 10.0 °F 84% 30.25 in 10.0 mi Calm Calm - N/A   Clear
1:52 AM 12.9 °F - 10.0 °F 88% 30.24 in 10.0 mi Calm Calm - N/A   Clear
2:52 AM 12.9 °F - 9.0 °F 84% 30.23 in 10.0 mi Calm Calm - N/A   Clear
3:52 AM 12.0 °F - 8.1 °F 84% 30.20 in 10.0 mi Calm Calm - N/A   Clear
4:52 AM 12.0 °F - 7.0 °F 80% 30.19 in 10.0 mi Calm Calm - N/A   Clear
5:52 AM 10.9 °F - 6.1 °F 81% 30.19 in 10.0 mi Calm Calm - N/A   Clear
6:52 AM 12.9 °F - 8.1 °F 81% 30.20 in 10.0 mi Calm Calm - N/A   Clear
7:52 AM 17.1 °F 11.7 °F 10.9 °F 77% 30.19 in 10.0 mi South 3.5 mph - N/A   Clear
8:52 AM 23.0 °F 17.0 °F 17.1 °F 78% 30.21 in 10.0 mi South 4.6 mph - N/A   Clear
9:52 AM 28.9 °F 22.8 °F 18.0 °F 64% 30.23 in 10.0 mi SSW 5.8 mph - N/A   Clear
10:52 AM 33.1 °F 24.9 °F 18.0 °F 54% 30.21 in 10.0 mi SSW 10.4 mph - N/A   Clear
11:52 AM 39.9 °F 32.9 °F 18.0 °F 41% 30.16 in 10.0 mi WSW 11.5 mph 19.6 mph N/A   Clear
12:52 PM 43.0 °F 36.8 °F 17.1 °F 35% 30.14 in 10.0 mi WSW 11.5 mph - N/A   Clear
2:52 PM 46.0 °F 41.4 °F 18.0 °F 33% 30.11 in 10.0 mi SW 9.2 mph - N/A   Mostly Cloudy
3:52 PM 46.9 °F - 17.1 °F 30% 30.12 in 10.0 mi West 9.2 mph - N/A   Partly Cloudy
4:52 PM 45.0 °F 42.6 °F 18.0 °F 34% 30.13 in 10.0 mi WSW 4.6 mph - N/A   Clear
5:52 PM 37.9 °F 35.5 °F 18.0 °F 45% 30.16 in 10.0 mi WSW 3.5 mph - N/A   Clear
6:52 PM 30.0 °F - 18.0 °F 61% 30.17 in 10.0 mi Calm Calm - N/A   Clear
7:52 PM 28.0 °F - 19.0 °F 69% 30.17 in 10.0 mi Calm Calm - N/A   Clear
8:52 PM 27.0 °F - 19.9 °F 75% 30.18 in 10.0 mi Calm Calm - N/A   Clear
9:52 PM 25.0 °F - 19.9 °F 81% 30.19 in 10.0 mi Calm Calm - N/A   Clear
10:52 PM 25.0 °F - 19.0 °F 78% 30.20 in 10.0 mi Calm Calm - N/A   Clear
11:52 PM 24.1 °F - 19.0 °F 81% 30.21 in 10.0 mi Calm Calm - N/A   Clear